TimePST,TemperatureF,Dew PointF,Humidity,Sea Level PressureIn,VisibilityMPH,Wind Direction,Wind SpeedMPH,Gust SpeedMPH,PrecipitationIn,Events,Conditions,WindDirDegrees,DateUTC
12:10 AM,24.8,14.0,64,30.22,10.0,West,5.8,-,N/A,,Clear,270,2013-01-12 08:10:00
12:30 AM,24.8,14.0,64,30.22,10.0,West,5.8,-,N/A,,Clear,270,2013-01-12 08:30:00
12:50 AM,24.8,14.0,64,30.22,10.0,West,4.6,-,N/A,,Clear,260,2013-01-12 08:50:00
1:10 AM,23.0,14.0,68,30.23,10.0,West,5.8,-,N/A,,Clear,270,2013-01-12 09:10:00
1:30 AM,23.0,14.0,68,30.23,10.0,West,5.8,-,N/A,,Clear,270,2013-01-12 09:30:00
1:50 AM,23.0,14.0,68,30.23,10.0,West,3.5,-,N/A,,Clear,270,2013-01-12 09:50:00
2:10 AM,23.0,14.0,68,30.23,10.0,West,5.8,-,N/A,,Clear,260,2013-01-12 10:10:00
2:30 AM,21.2,14.0,74,30.23,10.0,West,6.9,-,N/A,,Clear,270,2013-01-12 10:30:00
2:50 AM,23.0,14.0,68,30.23,10.0,West,5.8,-,N/A,,Clear,270,2013-01-12 10:50:00
3:10 AM,21.2,14.0,74,30.23,10.0,West,6.9,-,N/A,,Clear,270,2013-01-12 11:10:00
3:30 AM,19.4,14.0,80,30.24,10.0,West,4.6,-,N/A,,Clear,270,2013-01-12 11:30:00
3:50 AM,19.4,14.0,80,30.23,10.0,West,5.8,-,N/A,,Scattered Clouds,270,2013-01-12 11:50:00
4:10 AM,19.4,14.0,80,30.23,10.0,West,6.9,-,N/A,,Partly Cloudy,280,2013-01-12 12:10:00
4:30 AM,19.4,14.0,80,30.23,10.0,West,4.6,-,N/A,,Clear,270,2013-01-12 12:30:00
4:50 AM,19.4,12.2,74,30.23,10.0,West,4.6,-,N/A,,Clear,270,2013-01-12 12:50:00
5:10 AM,17.6,12.2,79,30.23,10.0,West,5.8,-,N/A,,Clear,260,2013-01-12 13:10:00
5:30 AM,17.6,12.2,79,30.24,10.0,West,5.8,-,N/A,,Clear,280,2013-01-12 13:30:00
5:50 AM,17.6,12.2,79,30.24,10.0,West,5.8,-,N/A,,Clear,270,2013-01-12 13:50:00
6:10 AM,17.6,10.4,73,30.24,10.0,West,6.9,-,N/A,,Clear,280,2013-01-12 14:10:00
6:30 AM,17.6,10.4,73,30.25,10.0,West,5.8,-,N/A,,Clear,270,2013-01-12 14:30:00
6:50 AM,17.6,10.4,73,30.25,10.0,West,4.6,-,N/A,,Clear,270,2013-01-12 14:50:00
7:10 AM,17.6,10.4,73,30.26,10.0,West,5.8,-,N/A,,Clear,280,2013-01-12 15:10:00
7:30 AM,15.8,10.4,79,30.26,10.0,West,5.8,-,N/A,,Clear,270,2013-01-12 15:30:00
7:50 AM,15.8,10.4,79,30.27,10.0,West,5.8,-,N/A,,Clear,280,2013-01-12 15:50:00
8:10 AM,15.8,10.4,79,30.27,10.0,West,5.8,-,N/A,,Clear,280,2013-01-12 16:10:00
8:30 AM,17.6,10.4,73,30.27,10.0,West,3.5,-,N/A,,Clear,270,2013-01-12 16:30:00
8:50 AM,19.4,10.4,68,30.27,10.0,Calm,Calm,-,N/A,,Clear,0,2013-01-12 16:50:00
9:10 AM,21.2,12.2,68,30.27,9.0,Calm,Calm,-,N/A,,Clear,0,2013-01-12 17:10:00
9:30 AM,23.0,15.8,74,30.27,10.0,Calm,Calm,-,N/A,,Clear,0,2013-01-12 17:30:00
9:50 AM,24.8,17.6,74,30.26,10.0,Calm,Calm,-,N/A,,Clear,0,2013-01-12 17:50:00
10:30 AM,26.6,15.8,64,30.25,10.0,Calm,Calm,-,N/A,,Clear,0,2013-01-12 18:30:00
10:50 AM,26.6,15.8,64,30.24,10.0,Calm,Calm,-,N/A,,Clear,0,2013-01-12 18:50:00
11:10 AM,26.6,15.8,64,30.23,10.0,Calm,Calm,-,N/A,,Clear,0,2013-01-12 19:10:00
11:30 AM,28.4,14.0,55,30.22,10.0,Calm,Calm,-,N/A,,Clear,0,2013-01-12 19:30:00
11:50 AM,28.4,14.0,55,30.21,10.0,Calm,Calm,-,N/A,,Clear,0,2013-01-12 19:50:00
12:10 PM,30.2,15.8,55,30.20,10.0,Calm,Calm,-,N/A,,Clear,0,2013-01-12 20:10:00
12:30 PM,32.0,17.6,55,30.19,10.0,Calm,Calm,-,N/A,,Partly Cloudy,0,2013-01-12 20:30:00
12:50 PM,32.0,17.6,55,30.17,10.0,Calm,Calm,-,N/A,,Partly Cloudy,0,2013-01-12 20:50:00
1:10 PM,32.0,17.6,55,30.17,10.0,Calm,Calm,-,N/A,,Mostly Cloudy,0,2013-01-12 21:10:00
1:30 PM,33.8,17.6,52,30.17,10.0,NE,3.5,-,N/A,,Overcast,50,2013-01-12 21:30:00
1:50 PM,35.6,17.6,48,30.16,10.0,Calm,Calm,-,N/A,,Overcast,0,2013-01-12 21:50:00
2:10 PM,35.6,15.8,44,30.17,10.0,Calm,Calm,-,N/A,,Mostly Cloudy,0,2013-01-12 22:10:00
2:30 PM,35.6,17.6,48,30.17,10.0,Calm,Calm,-,N/A,,Overcast,0,2013-01-12 22:30:00
2:50 PM,35.6,17.6,48,30.17,10.0,Calm,Calm,-,N/A,,Overcast,0,2013-01-12 22:50:00
3:10 PM,35.6,19.4,52,30.16,10.0,Calm,Calm,-,N/A,,Overcast,0,2013-01-12 23:10:00
3:30 PM,37.4,17.6,45,30.17,10.0,Calm,Calm,-,N/A,,Overcast,0,2013-01-12 23:30:00
4:10 PM,35.6,21.2,56,30.16,10.0,SSW,3.5,-,N/A,,Overcast,200,2013-01-13 00:10:00
4:30 PM,33.8,23.0,65,30.15,7.0,WNW,4.6,-,N/A,,Scattered Clouds,290,2013-01-13 00:30:00
4:50 PM,33.8,19.4,56,30.15,10.0,West,4.6,-,N/A,,Clear,270,2013-01-13 00:50:00
5:10 PM,32.0,23.0,69,30.17,10.0,Calm,Calm,-,N/A,,Clear,0,2013-01-13 01:10:00
5:30 PM,28.4,23.0,80,30.18,10.0,Calm,Calm,-,N/A,,Clear,0,2013-01-13 01:30:00
5:50 PM,28.4,23.0,80,30.18,10.0,West,5.8,-,N/A,,Clear,270,2013-01-13 01:50:00
6:10 PM,26.6,19.4,74,30.19,10.0,West,4.6,-,N/A,,Clear,270,2013-01-13 02:10:00
6:30 PM,28.4,19.4,69,30.19,10.0,WSW,3.5,-,N/A,,Clear,240,2013-01-13 02:30:00
6:50 PM,26.6,19.4,74,30.19,9.0,WNW,3.5,-,N/A,,Clear,300,2013-01-13 02:50:00
7:10 PM,26.6,19.4,74,30.19,9.0,Calm,Calm,-,N/A,,Clear,0,2013-01-13 03:10:00
7:30 PM,26.6,17.6,69,30.20,10.0,West,3.5,-,N/A,,Clear,260,2013-01-13 03:30:00
7:50 PM,24.8,17.6,74,30.20,10.0,West,5.8,-,N/A,,Clear,260,2013-01-13 03:50:00
8:10 PM,24.8,17.6,74,30.20,10.0,WSW,4.6,-,N/A,,Clear,250,2013-01-13 04:10:00
8:30 PM,24.8,17.6,74,30.22,10.0,West,4.6,-,N/A,,Clear,260,2013-01-13 04:30:00
8:50 PM,23.0,15.8,74,30.23,10.0,West,4.6,-,N/A,,Clear,260,2013-01-13 04:50:00
9:10 PM,23.0,15.8,74,30.23,10.0,West,4.6,-,N/A,,Clear,270,2013-01-13 05:10:00
9:30 PM,23.0,15.8,74,30.23,10.0,West,4.6,-,N/A,,Clear,270,2013-01-13 05:30:00
10:10 PM,23.0,14.0,68,30.24,9.0,West,5.8,-,N/A,,Clear,260,2013-01-13 06:10:00
10:30 PM,19.4,14.0,80,30.25,10.0,West,5.8,-,N/A,,Clear,280,2013-01-13 06:30:00
10:50 PM,19.4,14.0,80,30.26,10.0,West,5.8,-,N/A,,Clear,260,2013-01-13 06:50:00
11:10 PM,19.4,10.4,68,30.25,10.0,West,5.8,-,N/A,,Clear,270,2013-01-13 07:10:00
11:30 PM,19.4,10.4,68,30.25,10.0,West,6.9,-,N/A,,Clear,260,2013-01-13 07:30:00
11:50 PM,19.4,10.4,68,30.25,10.0,West,5.8,-,N/A,,Clear,270,2013-01-13 07:50:00